Simultaneous Nadir Overpasses (SNOs) Predictions

Prediction of SNOs between GOES-17 and METOP-C Satellite Orbit:

Table of predicted SNOs for the next 14.0 days since TLE Epoch: 11/9/2019
Index Date Time (GOES-17) GOES-17 Lat,Lon METOP-C Lat,Lon Distance(km) Time Diff (sec)
1 11/10/2019 06:41:08 0.00,-137.21 0.00,-137.30 9.38 80
2 11/12/2019 18:39:19 -0.00,-137.21 -0.07,-136.86 39.55 80
3 11/14/2019 06:58:19 0.01,-137.19 -0.93,-141.46 485.50 80
4 11/15/2019 06:34:59 0.01,-137.18 0.20,-136.47 82.57 80
5 11/16/2019 18:53:51 -0.01,-137.17 0.86,-141.02 439.34 80
6 11/17/2019 18:35:51 -0.01,-137.15 -0.26,-136.03 128.25 80
7 11/19/2019 06:54:49 0.00,-137.12 -0.80,-140.61 398.23 80
8 11/20/2019 06:31:30 0.00,-137.11 0.33,-135.62 168.97 80
9 11/21/2019 18:50:22 -0.00,-137.08 0.67,-140.19 353.97 80
10 11/22/2019 18:32:22 -0.00,-137.06 -0.40,-135.19 213.04 80




NCC Satellite Simultaneous Nadir Overpasses (SNOs) Prediction Service
